Погода в Клактоне-он-Си

Великобритания     51°48′02″N   1°09′12″E
темп.,
°C
ветер,
м/с
пор.,
м/с
влажн.,
%
обл.,
%
осадки,
мм/ч
давл.,
гПа
погр.,
м
29 ноября, пн
пн2900:00+3ссз914908 0.0 1008501
03:00+3сз10139197 0.0 1009421
06:00+3сз9128993 0.0 1011319
09:00+3сз8108910 0.0 1013273
12:00+5сз78785 0.0 1014360
15:00+5зсз787696 0.0 1014492
18:00+5з9107494 0.0 1015556
21:00+6зюз10127689 0.0 1014545
30 ноября, вт
вт3000:00+7зюз121688100 0.5 1012544
03:00+8з131885100 0.2 1011637
06:00+9з121789100 0.3 1011813
09:00+10з121690100 0.4 1011827
12:00+10з111587100 0.6 1011758
15:00+11з10138699 0.0 1010675
18:00+10зюз91488100 0.3 1007584
21:00+10зюз131885100 0.0 1004904
1 декабря, ср
ср100:00+11юз141982100 0.2 9991009
03:00+11юз141990100 0.6 994757
06:00+10зсз12158298 2.1 9931078
09:00+9зсз131577100 0.1 9941208
12:00+9зсз121573100 0.3 9951215
15:00+8ссз11137998 0.7 9981168
18:00+7ссз12148092 1.4 10011090
21:00+5сз11148112 0.1 1004796
2 декабря, чт
чт200:00+4сз1114845 0.1 1005620
03:00+4сз1114825 0.0 1006560
06:00+4зсз101469100 0.0 1005875
09:00+3сз10128755 0.0 1006670
12:00+4сз1215795 0.0 1007787
15:00+4сз1417817 0.0 1007971
18:00+4сз1315795 0.0 1010664
21:00+3сз9117593 0.0 1011424
3 декабря, пт
пт300:00+4з7864100 0.0 1010439
03:00+5зюз101263100 0.0 1007919
06:00+5юз91497100 1.0 1004839
09:00+7юз141791100 4.9 9991144
12:00+8юз121592100 7.5 995817
15:00+8зсз91184100 0.4 993937
18:00+7зсз9128497 0.5 993793
21:00+7сз10128797 0.3 996865